When you browse on this site, cookies collect data to enhance your experience and personalize the content and advertising you see.
Visit our Privacy Policy to learn more. By continuing to use the site, you agree to this use of cookies and data.
  • In Austria
  • List of Countries
  • For 7 days
  • Water Temperature
  • Satellite Maps
  • Weather Map
  • News
  • Weather Widgets
  • user-avatar
    Login

    Hourly Weather Shargorod

    Today, 22 July, Monday

    Time Temperature Precipitation Wind Pressure Humidity
    00:00 +21°C° 0.1 mm 1 mps 741 mmHg 77%
    01:00 +21°C° 0.1 mm 1 mps 740 mmHg 77%
    02:00 +21°C° 0.1 mm 1 mps 740 mmHg 78%
    03:00 +19°C° 0 mm 2 mps 740 mmHg 81%
    04:00 +19°C° 0 mm 2 mps 740 mmHg 84%
    05:00 +18°C° 0 mm 3 mps 740 mmHg 88%
    06:00 +19°C° 0 mm 3 mps 740 mmHg 86%
    07:00 +20°C° 0 mm 3 mps 741 mmHg 84%
    08:00 +21°C° 0 mm 4 mps 741 mmHg 82%
    09:00 +21°C° 0 mm 4 mps 741 mmHg 79%
    10:00 +22°C° 0 mm 4 mps 741 mmHg 76%
    11:00 +23°C° 0 mm 4 mps 741 mmHg 74%
    12:00 +25°C° 0 mm 4 mps 741 mmHg 70%
    13:00 +26°C° 0 mm 4 mps 741 mmHg 66%
    14:00 +27°C° 0 mm 4 mps 741 mmHg 62%
    15:00 +26°C° 0.1 mm 4 mps 741 mmHg 64%
    16:00 +26°C° 0.1 mm 4 mps 741 mmHg 65%
    17:00 +26°C° 0.1 mm 4 mps 741 mmHg 66%
    18:00 +25°C° 0 mm 4 mps 740 mmHg 72%
    19:00 +22°C° 0 mm 3 mps 740 mmHg 78%
    20:00 +21°C° 0 mm 3 mps 740 mmHg 84%
    21:00 +20°C° 0 mm 3 mps 740 mmHg 86%
    22:00 +19°C° 0 mm 3 mps 740 mmHg 89%
    23:00 +18°C° 0 mm 3 mps 740 mmHg 91%

    Tomorrow, 23 July, Tuesday

    Time Temperature Precipitation Wind Pressure Humidity
    00:00 +17°C° 0 mm 3 mps 740 mmHg 91%
    01:00 +17°C° 0 mm 3 mps 740 mmHg 90%
    02:00 +16°C° 0 mm 3 mps 740 mmHg 89%
    03:00 +16°C° 0 mm 3 mps 740 mmHg 87%
    04:00 +16°C° 0 mm 3 mps 740 mmHg 85%
    05:00 +16°C° 0 mm 3 mps 740 mmHg 82%
    06:00 +17°C° 0 mm 3 mps 739 mmHg 80%
    07:00 +18°C° 0 mm 3 mps 739 mmHg 77%
    08:00 +19°C° 0 mm 4 mps 739 mmHg 75%
    09:00 +20°C° 0.1 mm 4 mps 739 mmHg 69%
    10:00 +22°C° 0.1 mm 4 mps 740 mmHg 64%
    11:00 +23°C° 0.1 mm 4 mps 740 mmHg 58%
    12:00 +23°C° 0.4 mm 4 mps 739 mmHg 57%
    13:00 +23°C° 0.4 mm 5 mps 739 mmHg 55%
    14:00 +25°C° 0.4 mm 5 mps 738 mmHg 54%
    15:00 +23°C° 0 mm 5 mps 739 mmHg 55%
    16:00 +23°C° 0 mm 5 mps 739 mmHg 55%
    17:00 +23°C° 0 mm 5 mps 739 mmHg 56%
    18:00 +21°C° 0 mm 4 mps 738 mmHg 63%
    19:00 +20°C° 0 mm 4 mps 738 mmHg 71%
    20:00 +18°C° 0 mm 3 mps 738 mmHg 78%
    21:00 +17°C° 0 mm 3 mps 738 mmHg 80%
    22:00 +17°C° 0 mm 3 mps 739 mmHg 82%
    23:00 +16°C° 0 mm 3 mps 739 mmHg 84%

    Day after tomorrow, 24 July, Wednesday

    Time Temperature Precipitation Wind Pressure Humidity
    00:00 +15°C° 0 mm 4 mps 739 mmHg 85%
    01:00 +15°C° 0 mm 4 mps 738 mmHg 87%
    02:00 +14°C° 0 mm 4 mps 738 mmHg 88%
    03:00 +14°C° 0 mm 4 mps 738 mmHg 89%
    04:00 +14°C° 0 mm 4 mps 738 mmHg 90%
    05:00 +14°C° 0 mm 4 mps 738 mmHg 91%
    06:00 +15°C° 0 mm 5 mps 738 mmHg 85%
    07:00 +17°C° 0 mm 5 mps 738 mmHg 80%
    08:00 +20°C° 0 mm 6 mps 738 mmHg 75%
    09:00 +21°C° 0.1 mm 6 mps 738 mmHg 71%
    10:00 +22°C° 0.1 mm 7 mps 738 mmHg 68%
    11:00 +23°C° 0.1 mm 7 mps 738 mmHg 65%
    12:00 +23°C° 0.5 mm 7 mps 738 mmHg 64%
    13:00 +24°C° 0.5 mm 7 mps 738 mmHg 62%
    14:00 +24°C° 0.5 mm 7 mps 738 mmHg 61%
    15:00 +24°C° 0.1 mm 7 mps 738 mmHg 62%
    16:00 +24°C° 0.1 mm 7 mps 738 mmHg 63%
    17:00 +24°C° 0.1 mm 7 mps 738 mmHg 64%
    18:00 +22°C° 0.1 mm 6 mps 738 mmHg 72%
    19:00 +20°C° 0.1 mm 5 mps 738 mmHg 79%
    20:00 +19°C° 0.1 mm 4 mps 738 mmHg 86%
    21:00 +18°C° 0 mm 4 mps 738 mmHg 88%
    22:00 +18°C° 0 mm 4 mps 738 mmHg 90%
    23:00 +17°C° 0 mm 4 mps 738 mmHg 91%

    25 July, Thursday

    Time Temperature Precipitation Wind Pressure Humidity
    00:00 +17°C° 0 mm 4 mps 738 mmHg 92%
    01:00 +15°C° 0 mm 4 mps 738 mmHg 93%
    02:00 +15°C° 0 mm 4 mps 738 mmHg 93%
    03:00 +14°C° 0 mm 4 mps 738 mmHg 93%
    04:00 +14°C° 0 mm 4 mps 738 mmHg 92%
    05:00 +14°C° 0 mm 4 mps 738 mmHg 92%
    06:00 +15°C° 0 mm 5 mps 738 mmHg 86%
    07:00 +17°C° 0 mm 5 mps 738 mmHg 80%
    08:00 +19°C° 0 mm 6 mps 739 mmHg 75%
    09:00 +20°C° 0.4 mm 6 mps 739 mmHg 75%
    10:00 +20°C° 0.4 mm 6 mps 739 mmHg 75%
    11:00 +20°C° 0.4 mm 5 mps 739 mmHg 75%
    12:00 +21°C° 0.1 mm 6 mps 739 mmHg 70%
    13:00 +22°C° 0.1 mm 7 mps 739 mmHg 66%
    14:00 +23°C° 0.1 mm 8 mps 739 mmHg 61%
    15:00 +22°C° 0.4 mm 7 mps 738 mmHg 67%
    16:00 +21°C° 0.4 mm 7 mps 738 mmHg 72%
    17:00 +20°C° 0.4 mm 6 mps 738 mmHg 77%
    18:00 +20°C° 0 mm 5 mps 738 mmHg 81%
    19:00 +19°C° 0 mm 5 mps 738 mmHg 85%
    20:00 +18°C° 0 mm 4 mps 738 mmHg 88%
    21:00 +18°C° 0 mm 4 mps 738 mmHg 91%
    22:00 +18°C° 0 mm 4 mps 738 mmHg 93%
    23:00 +17°C° 0 mm 4 mps 738 mmHg 95%

    26 July, Friday

    Time Temperature Precipitation Wind Pressure Humidity
    00:00 +17°C° 0 mm 3 mps 738 mmHg 96%
    01:00 +16°C° 0 mm 3 mps 738 mmHg 97%
    02:00 +16°C° 0 mm 3 mps 738 mmHg 97%
    03:00 +16°C° 0 mm 3 mps 738 mmHg 97%
    04:00 +15°C° 0 mm 4 mps 738 mmHg 98%
    05:00 +15°C° 0 mm 4 mps 738 mmHg 98%
    06:00 +17°C° 0 mm 4 mps 738 mmHg 93%
    07:00 +18°C° 0 mm 4 mps 739 mmHg 89%
    08:00 +19°C° 0 mm 4 mps 739 mmHg 85%
    09:00 +21°C° 0 mm 5 mps 739 mmHg 78%
    10:00 +22°C° 0 mm 5 mps 739 mmHg 72%
    11:00 +24°C° 0 mm 6 mps 739 mmHg 66%
    12:00 +26°C° 0.3 mm 6 mps 739 mmHg 64%
    13:00 +26°C° 0.3 mm 6 mps 739 mmHg 63%
    14:00 +27°C° 0.3 mm 6 mps 739 mmHg 61%
    15:00 +27°C° 0.3 mm 6 mps 739 mmHg 63%
    16:00 +26°C° 0.3 mm 5 mps 738 mmHg 64%
    17:00 +26°C° 0.3 mm 5 mps 738 mmHg 66%
    18:00 +25°C° 0.1 mm 4 mps 738 mmHg 72%
    19:00 +22°C° 0.1 mm 4 mps 738 mmHg 78%
    20:00 +21°C° 0.1 mm 3 mps 738 mmHg 84%
    21:00 +20°C° 0 mm 3 mps 738 mmHg 86%
    22:00 +19°C° 0 mm 3 mps 738 mmHg 88%
    23:00 +18°C° 0 mm 3 mps 738 mmHg 89%

    27 July, Saturday

    Time Temperature Precipitation Wind Pressure Humidity
    00:00 +18°C° 0 mm 3 mps 738 mmHg 90%
    01:00 +17°C° 0 mm 3 mps 738 mmHg 90%
    02:00 +17°C° 0 mm 2 mps 738 mmHg 91%
    03:00 +17°C° 0 mm 3 mps 738 mmHg 92%
    04:00 +17°C° 0 mm 3 mps 738 mmHg 92%
    05:00 +16°C° 0 mm 3 mps 738 mmHg 93%
    06:00 +18°C° 0 mm 3 mps 738 mmHg 88%
    07:00 +20°C° 0 mm 3 mps 738 mmHg 82%
    08:00 +22°C° 0 mm 3 mps 738 mmHg 77%
    09:00 +24°C° 0 mm 3 mps 738 mmHg 71%
    10:00 +25°C° 0 mm 3 mps 738 mmHg 65%
    11:00 +26°C° 0 mm 3 mps 738 mmHg 59%
    12:00 +27°C° 0.2 mm 3 mps 738 mmHg 58%
    13:00 +27°C° 0.2 mm 3 mps 738 mmHg 56%
    14:00 +28°C° 0.2 mm 4 mps 737 mmHg 55%
    15:00 +27°C° 0.1 mm 4 mps 737 mmHg 55%
    16:00 +27°C° 0.1 mm 4 mps 737 mmHg 55%
    17:00 +27°C° 0.1 mm 4 mps 737 mmHg 56%
    18:00 +25°C° 0 mm 3 mps 736 mmHg 61%
    19:00 +23°C° 0 mm 2 mps 736 mmHg 66%
    20:00 +21°C° 0 mm 2 mps 736 mmHg 71%
    21:00 +21°C° 0 mm 1 mps 736 mmHg 74%
    22:00 +20°C° 0 mm 1 mps 736 mmHg 76%
    23:00 +20°C° 0 mm 1 mps 736 mmHg 78%
    Show more